Wind_Speed
8 9 9 10 11 12 12 11 11 11 11 11 12 12 12 12 12 12 12 11 10 9 8 7 6 5 5 5 5 4 3 1 2 3 5 6 7 7 7 8 8 9 9 9 9 10 10 10 10
6 7 8 9 11 11 11 11 11 11 11 11 11 11 11 12 11 11 11 10 10 9 8 7 6 5 4 3 3 3 3 2 1 1 2 3 4 5 7 7 8 9 10 10 11 11 10 10 10
4 5 7 9 10 11 11 12 11 11 10 10 10 11 11 11 11 10 10 9 9 9 8 7 6 6 5 4 3 2 2 2 1 1 2 3 4 5 6 7 8 9 10 11 12 12 12 12 12
4 6 8 10 11 11 11 11 12 11 10 10 10 10 11 11 11 10 10 9 9 8 8 7 6 6 5 4 4 4 4 4 4 4 5 5 5 6 7 8 9 9 10 11 12 13 13 14 14
5 8 9 11 12 12 12 12 12 11 11 10 10 10 10 10 11 11 10 10 9 9 8 8 7 6 6 5 5 5 5 6 7 7 8 8 8 9 9 10 10 11 11 12 13 14 14 15 16
8 10 11 12 13 14 13 13 12 11 11 10 10 9 9 10 11 11 11 11 11 10 10 10 9 9 8 8 7 7 7 7 8 9 10 11 11 12 13 13 14 14 14 14 15 15 16 16 17
11 13 14 14 14 15 15 14 13 12 12 11 10 10 10 10 11 12 12 13 12 12 12 12 12 11 11 11 11 10 10 10 10 11 11 12 13 14 15 16 17 17 17 17 18 18 18 18 19
14 16 17 17 16 16 15 15 14 14 14 13 12 11 11 11 11 12 13 14 14 13 13 13 13 13 13 13 13 14 14 14 14 14 14 15 15 16 17 18 19 20 21 21 21 21 21 21 21
18 19 20 19 18 17 16 15 15 15 16 16 15 14 13 13 13 13 14 14 14 14 14 15 15 15 15 15 16 16 17 17 18 18 18 19 19 19 19 20 21 22 23 24 24 24 25 25 25
21 22 22 21 20 19 17 16 16 17 18 18 17 16 15 14 14 14 14 15 15 15 16 17 17 17 17 18 18 19 19 19 20 21 22 22 23 23 23 23 23 24 24 25 25 26 27 27 28
24 24 24 23 21 20 18 17 17 18 19 19 20 19 17 17 17 16 16 16 17 17 17 18 19 20 21 21 21 22 22 22 23 24 25 25 26 26 27 27 27 27 27 28 28 28 28 29 30
26 25 24 23 22 20 20 20 20 21 20 21 21 21 21 20 20 19 18 18 19 19 20 20 21 22 23 24 25 25 26 26 26 27 27 27 28 28 29 30 31 31 31 31 31 32 31 31 32
26 25 24 24 23 22 22 22 22 24 23 24 23 23 23 23 23 22 21 21 21 22 22 23 23 24 25 26 27 28 29 30 30 30 30 30 31 31 32 32 33 34 34 35 36 36 35 35 36
25 24 24 25 25 25 24 25 26 26 26 26 26 26 25 25 25 24 23 23 23 24 25 25 25 26 26 27 29 30 32 33 33 34 35 35 35 35 35 36 36 37 37 37 38 38 39 39 39
27 26 25 27 27 27 26 27 28 28 28 28 28 27 27 27 26 26 25 25 25 26 27 27 28 28 29 30 30 31 33 34 35 37 38 38 39 39 39 39 40 41 41 41 41 41 41 42 42
30 29 28 28 28 28 28 27 29 29 29 28 28 28 29 28 28 28 27 27 27 28 28 29 29 30 30 31 32 34 35 36 37 38 39 41 42 43 43 44 44 45 45 45 45 45 45 45 45
31 30 29 28 29 30 30 27 29 30 29 29 29 29 30 30 30 29 28 28 29 29 29 30 30 31 32 33 34 35 36 37 38 40 41 42 44 45 46 47 48 48 49 49 49 49 49 49 48
33 31 29 29 31 32 32 29 30 31 31 30 30 30 30 30 30 30 30 30 30 30 31 32 32 33 34 35 36 37 38 39 40 42 43 44 46 47 48 50 51 52 52 53 53 53 53 53 52
34 34 32 31 34 35 34 32 31 31 31 31 30 30 30 30 31 31 32 32 33 34 34 35 36 37 38 39 39 40 41 42 43 44 46 47 48 49 51 52 53 54 55 56 56 57 57 57 57
37 37 36 36 37 37 35 33 31 31 31 30 30 30 30 31 32 33 34 35 36 37 38 39 39 40 41 42 43 44 45 46 46 48 49 50 51 52 54 55 56 57 58 58 58 59 59 60 60
39 39 39 39 38 37 36 34 31 30 30 31 31 32 32 34 35 36 37 38 40 41 41 42 42 43 44 45 46 47 48 49 50 51 52 54 55 56 58 59 60 61 61 62 62 62 62 62 63
40 39 39 39 38 37 37 36 31 30 32 33 34 35 36 37 39 40 41 41 42 43 44 45 45 45 46 47 48 50 51 52 53 54 55 57 58 60 62 63 64 65 66 66 66 66 67 66 66
40 38 38 39 39 39 37 37 36 34 34 35 36 38 39 40 41 42 43 44 45 46 47 47 48 48 49 49 50 52 53 55 56 57 58 60 61 63 65 66 67 68 69 70 71 71 71 71 71
39 38 39 39 39 40 37 39 41 40 39 39 40 41 42 43 44 45 46 48 49 49 50 50 51 51 52 52 53 55 56 57 59 60 61 63 64 66 68 70 71 72 73 74 75 75 76 76 76
38 38 40 41 41 41 41 43 44 44 44 44 44 45 45 46 47 48 50 51 52 53 54 55 55 56 57 57 58 59 60 61 62 63 65 66 68 70 72 74 75 77 78 79 80 80 80 80 80
40 40 41 42 44 44 45 47 47 47 47 47 47 47 48 49 50 52 54 55 56 58 59 60 61 61 62 63 63 64 64 65 65 66 67 69 71 73 76 78 80 81 82 83 84 84 85 85 85
42 42 42 45 47 48 50 50 50 50 49 49 49 50 50 51 52 55 57 59 60 61 63 64 65 66 67 68 68 69 69 69 70 70 71 73 74 76 78 80 82 84 86 87 88 88 89 89 88
44 44 45 47 49 52 53 53 54 53 52 51 51 51 52 53 56 58 60 62 64 65 66 68 69 70 71 72 72 73 73 73 74 74 75 76 77 78 79 80 82 85 87 89 91 91 92 92 92
46 48 49 50 53 54 55 56 57 56 54 53 52 53 54 56 59 62 64 65 67 68 70 71 72 73 74 75 76 76 77 77 78 78 78 79 80 80 81 82 84 85 87 88 90 92 93 94 95
51 50 50 52 53 54 58 60 59 56 54 53 54 56 58 61 63 65 66 67 69 71 72 74 75 76 77 78 78 79 79 79 80 80 80 81 82 83 85 85 86 87 89 90 91 92 93 94 95
Wind_Direction
61 52 41 32 27 26 25 19 14 18 24 27 27 27 26 28 32 33 32 34 34 33 33 33 33 35 40 46 52 62 78 124 196 224 236 242 248 252 257 260 260 261 261 260 260 261 262 261 261
54 37 23 17 11 12 12 7 5 10 15 18 18 17 16 16 19 21 21 22 22 21 22 23 22 19 17 18 25 38 49 61 83 192 236 244 251 255 259 262 263 263 264 264 263 262 260 259 258
35 12 2 359 356 358 358 356 356 359 5 9 9 9 8 6 7 8 8 7 7 6 8 8 9 9 4 352 339 330 324 321 314 291 266 257 257 259 261 263 264 265 266 265 264 263 260 258 257
356 347 344 344 343 345 346 345 345 348 352 358 359 1 2 359 357 356 355 352 350 348 346 348 349 347 346 343 330 310 296 285 278 273 269 265 261 259 258 258 260 262 263 264 264 263 261 259 258
330 331 333 334 333 334 335 335 336 338 340 344 347 351 352 351 348 346 344 341 337 333 328 324 321 319 318 315 311 305 293 283 276 271 268 265 263 261 259 258 258 259 261 262 263 263 261 260 259
316 321 323 324 324 324 324 325 325 326 329 332 334 336 338 337 335 334 334 333 330 325 319 313 307 301 297 294 293 290 288 284 279 275 271 269 266 264 263 261 261 261 261 261 261 261 261 260 259
309 313 315 317 316 315 315 316 317 317 317 320 322 324 324 323 321 320 321 323 324 323 318 312 305 300 293 287 283 280 279 278 277 276 274 272 270 268 267 265 264 263 263 262 262 261 261 261 260
303 307 310 311 310 308 308 309 311 311 310 312 315 316 315 313 311 309 310 311 313 315 314 310 306 301 295 289 283 278 274 272 271 271 271 271 271 270 269 268 267 265 265 264 264 264 264 264 263
299 302 304 305 304 302 302 303 304 305 306 310 312 311 309 309 307 305 303 301 300 300 300 299 298 297 294 289 284 279 275 271 268 267 267 268 268 269 269 269 269 268 267 267 267 267 266 266 266
296 298 299 299 298 296 296 297 297 297 299 304 306 304 304 305 305 303 301 297 293 289 287 286 287 286 285 283 282 279 276 272 268 266 265 266 266 267 267 268 269 270 270 269 268 268 268 268 268
293 294 294 293 292 291 291 292 292 292 295 299 300 301 302 303 303 300 297 294 289 284 280 278 277 278 277 277 276 276 275 273 270 267 266 265 265 266 266 266 267 268 269 269 269 269 269 268 268
290 290 289 288 288 288 288 289 289 290 292 294 296 298 300 301 300 297 293 289 286 284 281 279 276 275 275 274 273 272 272 272 271 271 269 267 266 265 265 265 265 265 266 267 267 268 268 268 268
287 286 286 286 287 288 288 287 288 289 293 293 294 296 297 298 297 294 290 287 284 283 282 281 279 278 276 274 273 272 271 271 271 271 270 269 268 267 266 266 265 265 265 265 266 266 266 266 266
281 280 281 284 286 287 287 288 288 288 290 290 291 293 294 295 294 292 290 288 285 284 283 283 282 281 279 277 275 273 272 271 270 270 270 270 269 268 268 267 267 266 266 266 266 266 266 265 265
278 277 277 279 281 281 282 282 283 285 285 286 288 290 292 294 294 293 292 290 287 286 285 284 283 283 281 279 277 275 274 272 271 270 270 269 269 268 268 268 268 268 267 267 267 266 266 266 266
277 277 277 278 279 278 278 278 280 281 281 284 287 290 292 293 293 292 291 289 288 287 286 285 284 283 282 281 279 278 276 274 272 271 270 270 269 268 268 267 267 268 268 268 268 267 267 266 266
275 276 277 278 278 277 277 278 279 281 282 284 287 289 290 291 291 291 290 289 289 288 287 286 286 285 284 282 281 279 278 276 274 273 271 270 270 269 268 267 267 267 267 267 268 267 267 266 265
274 277 278 278 277 276 277 278 277 280 283 285 286 286 287 288 288 289 289 289 289 289 288 288 287 286 285 283 282 280 279 277 276 274 273 271 270 270 269 268 268 267 267 266 267 267 267 266 265
276 277 278 277 275 275 276 276 276 278 280 281 283 283 284 284 285 287 288 288 287 287 287 287 286 286 285 283 282 281 279 278 276 275 274 272 271 270 269 269 268 268 267 267 267 266 266 266 265
275 276 277 275 274 275 276 276 277 278 279 280 281 282 283 284 284 285 285 285 286 286 286 285 285 285 284 283 282 280 279 277 276 275 273 272 271 270 269 268 268 268 267 267 267 266 266 265 265
273 274 274 274 274 275 277 278 279 280 281 283 284 284 285 285 286 286 286 286 286 286 286 285 284 283 282 281 280 280 279 277 275 274 274 273 271 270 269 268 268 267 267 267 266 266 265 264 264
270 270 271 272 273 274 277 281 281 281 282 284 285 286 287 287 287 286 287 287 287 286 285 284 283 281 280 279 278 278 277 277 276 275 274 273 272 271 270 269 268 267 267 266 266 266 265 265 264
268 268 268 269 271 274 279 283 285 283 283 284 286 287 287 287 287 287 287 287 286 286 284 284 282 281 280 279 278 277 276 276 275 275 274 274 273 271 270 269 268 267 267 266 266 266 265 265 264
265 266 267 268 272 276 280 282 287 288 289 289 289 289 288 287 287 288 288 287 287 286 285 284 283 282 281 280 279 278 277 276 275 274 274 273 272 271 271 270 269 268 267 266 266 266 265 265 265
264 265 266 269 273 278 281 281 285 288 290 291 291 291 290 290 290 290 289 288 287 287 286 285 285 284 283 282 281 280 278 277 276 275 274 273 272 271 271 271 270 270 269 268 268 267 266 266 266
263 264 266 271 275 277 280 282 287 289 290 291 290 290 290 291 290 290 289 288 288 287 287 286 286 285 284 283 282 281 280 279 278 277 276 275 274 273 272 272 272 272 272 272 271 270 270 269 268
264 266 268 270 274 278 282 286 289 291 290 289 290 291 291 290 289 288 287 286 286 285 285 285 284 284 283 283 283 283 282 282 281 280 279 279 277 276 275 275 274 274 273 273 273 273 273 273 272
265 267 267 269 274 278 282 286 287 286 286 288 289 289 288 287 286 285 284 284 284 284 284 284 283 283 284 284 284 284 284 284 284 284 283 283 282 281 280 279 278 277 277 276 275 275 275 274 274
265 266 268 270 273 276 281 283 284 286 288 288 288 287 285 284 283 282 282 283 283 283 283 283 283 284 284 284 284 285 285 285 286 286 285 285 285 284 283 282 281 279 278 277 276 275 275 274 274
265 268 269 270 273 275 277 281 284 286 287 287 286 285 284 283 282 283 283 283 283 283 283 283 284 284 284 285 286 286 287 287 288 288 287 287 287 286 285 284 282 281 280 279 277 276 274 274 273
Height
5873 5873 5874 5874 5874 5874 5873 5873 5872 5871 5869 5869 5868 5868 5867 5867 5868 5869 5866 5865 5864 5864 5863 5863 5863 5863 5863 5863 5863 5863 5863 5863 5864 5865 5866 5867 5868 5868 5869 5870 5871 5872 5873 5874 5875 5875 5876 5877 5877
5874 5875 5875 5875 5874 5874 5874 5873 5872 5871 5870 5869 5869 5868 5867 5867 5867 5867 5866 5866 5865 5865 5864 5864 5864 5864 5864 5863 5863 5863 5863 5863 5864 5864 5865 5866 5866 5867 5868 5869 5870 5870 5871 5872 5873 5874 5874 5875 5875
5875 5876 5876 5875 5874 5874 5874 5873 5872 5872 5871 5870 5869 5869 5868 5867 5866 5866 5866 5866 5866 5865 5865 5864 5864 5864 5864 5863 5863 5863 5863 5863 5864 5864 5864 5865 5865 5866 5866 5867 5868 5868 5869 5870 5871 5872 5872 5873 5873
5876 5877 5877 5876 5875 5874 5873 5873 5872 5871 5871 5870 5870 5869 5868 5867 5866 5866 5866 5865 5865 5865 5864 5864 5864 5863 5863 5863 5863 5863 5863 5863 5863 5863 5863 5864 5864 5864 5865 5865 5866 5866 5867 5868 5868 5869 5869 5870 5870
5875 5876 5876 5875 5874 5873 5872 5872 5871 5871 5870 5870 5869 5869 5868 5867 5866 5865 5865 5864 5864 5864 5863 5863 5863 5862 5862 5862 5862 5861 5861 5861 5861 5862 5862 5862 5863 5863 5863 5863 5864 5864 5864 5865 5865 5866 5866 5867 5867
5875 5875 5875 5874 5873 5872 5871 5870 5870 5870 5869 5869 5869 5868 5868 5867 5866 5865 5864 5863 5863 5862 5862 5861 5861 5861 5860 5860 5860 5860 5860 5860 5860 5860 5860 5860 5860 5861 5861 5861 5862 5862 5862 5862 5863 5863 5863 5864 5864
5874 5874 5873 5873 5872 5870 5869 5868 5868 5868 5867 5867 5867 5867 5867 5866 5865 5864 5863 5862 5862 5861 5861 5860 5859 5859 5858 5858 5858 5858 5858 5858 5858 5858 5858 5858 5858 5858 5858 5859 5859 5859 5859 5860 5860 5860 5860 5861 5861
5872 5872 5871 5870 5869 5869 5868 5866 5866 5865 5865 5865 5865 5866 5865 5865 5864 5863 5862 5861 5860 5860 5859 5858 5857 5857 5856 5856 5855 5855 5855 5855 5855 5855 5855 5855 5855 5855 5855 5855 5855 5856 5856 5856 5856 5857 5857 5857 5857
5869 5870 5868 5867 5867 5866 5865 5864 5864 5863 5862 5862 5862 5863 5862 5862 5861 5860 5860 5859 5858 5857 5856 5855 5855 5854 5853 5853 5852 5852 5851 5851 5851 5851 5851 5851 5851 5851 5851 5851 5851 5851 5852 5852 5852 5853 5853 5853 5853
5866 5866 5865 5864 5864 5863 5862 5862 5861 5860 5859 5859 5859 5859 5859 5858 5858 5857 5856 5855 5854 5853 5853 5852 5851 5851 5850 5849 5849 5848 5848 5847 5847 5847 5847 5847 5847 5847 5847 5847 5847 5847 5847 5847 5848 5848 5848 5848 5848
5862 5861 5861 5860 5860 5859 5859 5859 5858 5857 5856 5856 5855 5855 5855 5854 5854 5853 5852 5851 5850 5849 5848 5848 5847 5846 5846 5845 5845 5844 5843 5843 5842 5842 5842 5842 5842 5842 5842 5842 5842 5842 5842 5842 5842 5843 5843 5843 5843
5857 5856 5856 5855 5855 5855 5855 5855 5854 5853 5853 5852 5851 5850 5850 5849 5849 5848 5848 5847 5846 5845 5844 5843 5843 5842 5841 5841 5840 5839 5839 5838 5838 5837 5837 5837 5837 5836 5836 5836 5836 5836 5836 5836 5836 5837 5837 5837 5837
5853 5851 5850 5850 5850 5851 5851 5850 5849 5848 5848 5847 5846 5846 5845 5845 5844 5844 5843 5842 5841 5840 5839 5839 5838 5837 5836 5836 5835 5834 5833 5833 5832 5832 5832 5831 5831 5830 5830 5830 5829 5829 5829 5830 5830 5830 5830 5831 5831
5848 5847 5846 5845 5845 5845 5845 5845 5844 5843 5843 5842 5841 5841 5840 5840 5839 5838 5837 5837 5836 5835 5834 5833 5833 5832 5831 5830 5829 5828 5827 5827 5826 5826 5825 5825 5825 5824 5824 5823 5822 5822 5822 5822 5822 5822 5823 5823 5823
5842 5842 5842 5841 5840 5840 5841 5840 5838 5837 5837 5836 5836 5836 5835 5834 5833 5832 5832 5831 5830 5829 5828 5828 5827 5826 5825 5824 5823 5822 5821 5820 5820 5819 5818 5818 5817 5817 5816 5816 5815 5814 5814 5814 5813 5814 5814 5814 5814
5836 5836 5837 5836 5835 5834 5836 5836 5833 5831 5831 5831 5830 5830 5829 5827 5827 5826 5825 5825 5824 5823 5822 5822 5821 5820 5819 5818 5816 5815 5814 5813 5812 5811 5810 5810 5809 5809 5808 5807 5806 5805 5805 5804 5804 5804 5804 5804 5804
5828 5829 5830 5830 5828 5827 5828 5829 5827 5825 5825 5825 5825 5824 5822 5821 5820 5820 5819 5818 5818 5817 5816 5815 5814 5813 5812 5811 5809 5808 5807 5805 5804 5803 5802 5801 5800 5799 5798 5797 5796 5796 5795 5794 5794 5793 5793 5793 5793
5821 5822 5823 5823 5821 5820 5820 5821 5820 5818 5818 5818 5818 5817 5816 5815 5814 5813 5812 5812 5811 5810 5809 5809 5808 5806 5805 5803 5802 5800 5799 5797 5796 5794 5793 5791 5790 5789 5788 5787 5786 5785 5784 5783 5782 5782 5781 5781 5781
5813 5814 5815 5815 5813 5812 5812 5813 5813 5813 5812 5811 5811 5810 5810 5809 5808 5807 5806 5805 5804 5803 5802 5801 5800 5799 5797 5795 5794 5792 5790 5788 5787 5785 5783 5781 5780 5778 5777 5775 5774 5773 5772 5771 5770 5769 5768 5768 5768
5805 5805 5806 5806 5804 5803 5803 5804 5805 5805 5804 5804 5803 5803 5802 5802 5801 5800 5799 5798 5797 5795 5794 5793 5791 5790 5788 5786 5784 5782 5780 5778 5776 5774 5772 5770 5768 5766 5765 5763 5761 5760 5759 5758 5757 5756 5755 5754 5753
5796 5797 5796 5795 5795 5794 5795 5796 5797 5797 5795 5795 5795 5794 5794 5793 5792 5791 5790 5789 5787 5786 5784 5783 5781 5780 5778 5776 5774 5771 5769 5767 5764 5762 5760 5758 5755 5753 5751 5749 5748 5746 5745 5743 5742 5741 5740 5740 5739
5787 5788 5787 5786 5786 5785 5786 5786 5789 5789 5787 5787 5786 5786 5785 5784 5783 5781 5780 5779 5777 5775 5773 5771 5770 5768 5766 5764 5762 5760 5757 5755 5752 5749 5747 5744 5742 5740 5737 5735 5733 5731 5729 5728 5726 5725 5725 5724 5723
5777 5778 5778 5777 5776 5776 5777 5776 5779 5779 5779 5778 5777 5776 5775 5774 5772 5770 5769 5767 5765 5763 5761 5759 5757 5755 5754 5752 5749 5747 5744 5741 5738 5735 5733 5730 5727 5725 5722 5720 5717 5715 5713 5711 5710 5708 5707 5706 5706
5768 5768 5768 5767 5767 5767 5770 5767 5767 5767 5768 5767 5766 5765 5763 5762 5760 5759 5756 5754 5751 5749 5747 5745 5743 5741 5739 5737 5735 5732 5729 5726 5723 5720 5717 5714 5711 5708 5705 5702 5700 5697 5695 5693 5691 5690 5689 5688 5687
5759 5759 5758 5757 5757 5758 5759 5757 5758 5757 5756 5755 5754 5752 5750 5748 5747 5744 5742 5739 5737 5734 5732 5730 5728 5726 5723 5721 5718 5716 5713 5710 5707 5703 5700 5697 5694 5690 5687 5683 5680 5678 5675 5673 5671 5670 5668 5667 5666
5748 5748 5749 5749 5747 5747 5746 5746 5748 5747 5745 5743 5742 5740 5737 5735 5733 5730 5727 5724 5721 5719 5717 5714 5712 5709 5706 5704 5701 5698 5695 5692 5689 5686 5682 5679 5675 5672 5668 5664 5660 5657 5654 5652 5649 5648 5646 5645 5644
5737 5737 5739 5737 5735 5735 5735 5735 5735 5733 5732 5730 5729 5727 5725 5722 5719 5716 5712 5709 5706 5704 5701 5698 5695 5691 5689 5686 5683 5680 5677 5673 5670 5666 5663 5659 5655 5652 5648 5644 5640 5636 5633 5630 5627 5625 5623 5622 5621
5727 5727 5726 5725 5724 5723 5724 5724 5724 5721 5719 5719 5717 5715 5712 5709 5705 5701 5698 5694 5691 5688 5684 5681 5677 5674 5671 5667 5664 5660 5657 5653 5650 5646 5642 5638 5635 5631 5627 5623 5619 5615 5611 5607 5604 5602 5599 5598 5597
5716 5715 5714 5713 5711 5711 5711 5715 5709 5709 5708 5706 5704 5701 5698 5694 5690 5686 5682 5679 5675 5671 5667 5664 5660 5656 5653 5649 5645 5642 5638 5634 5630 5626 5621 5617 5613 5609 5605 5600 5596 5592 5588 5584 5581 5578 5575 5573 5572
5701 5703 5702 5701 5699 5697 5695 5701 5697 5697 5695 5692 5689 5686 5681 5677 5673 5670 5666 5663 5659 5654 5650 5646 5642 5638 5634 5630 5626 5622 5618 5613 5608 5604 5600 5595 5590 5585 5580 5576 5571 5567 5562 5558 5554 5551 5549 5547 5546